Location: Newark
(46.7000°N, 60.6000°W)
Time: 13:35:25
(UTC+00:00)

Vanguard 2 Rocket - Visible Passes

Search period start: 30 October 2020 00:00
Search period end: 09 November 2020 00:00
Orbit: 554 x 3326 km, 32.9° (Epoch: 29 October)

Date Brightness Start Highest point End Pass type
(mag) Time Alt. Az. Time Alt. Az. Time Alt. Az.
30 Oct 8.2 22:56:57 10° SSW 22:59:02 14° S 22:59:02 14° S visible
31 Oct 8.3 21:58:42 10° S 22:00:07 12° S 22:01:33 10° SSE visible
01 Nov 8.4 23:10:54 10° SSW 23:12:21 13° S 23:12:21 13° S visible
02 Nov 8.3 22:12:05 10° SSW 22:13:50 13° S 22:15:37 10° SSE visible
03 Nov 8.7 23:25:37 10° SSW 23:25:43 10° SSW 23:25:43 10° SSW visible
04 Nov 8.4 22:26:07 10° SSW 22:27:34 12° S 22:29:02 10° SSE visible
05 Nov 8.4 21:26:34 10° SSW 21:28:27 13° S 21:30:17 10° SSE visible
07 Nov 8.5 21:40:34 10° SW 21:42:10 12° SSW 21:43:43 10° SSE visible
